sat.trackr.live / text

‹ back to catalog

STARLINK-35269

NORAD 65593 · 2025-207B

PAYLOAD ACTIVE UNKNOWN

§ Identity

Operator
Country
US
Launch date
2025-09-13
Launch site
AFWTR
Launch vehicle
Mass (kg)
RCS (m²)

Purposes: comms

External: N2YO · Heavens-Above · Gunter

§ Orbital elements

Epoch: 2026-09-20T22:00:03.000096Z

Period
93.91 min
Inclination
97.2856°
Eccentricity
0.0002068
Mean motion
15.33446606 rev/d
Perigee alt
464.1 km
Apogee alt
467.0 km
Semi-major
6,843.7 km
B*
-5.4750e-4
RAAN
326.4681°
Arg perigee
88.2837°
Mean anomaly
267.2466°
Rev number
574

§ Raw data

STARLINK-352691 65593U 25207B   26263.91670139 -.00017711  00000+0 -54750-3 0  99912 65593  97.2856 326.4681 0002068  88.2837 267.2466 15.33446606  5746

JSON: /api/v1/satellites/65593 · /tle

For live sub-satellite position, see the globe view (requires WebGL).

§ Visibility from observer

Set your observer location to see the next 7 days of passes ≥ 10°. The values pass through the URL so the page stays shareable.

No JS? Fill the form by hand. The geolocation button needs JavaScript.